Location: Sommers-Bausch Observatory
(40.0037°N, 105.2635°W)
Time: 22:55:53
(UTC-06:00)

Daily predictions for brighter satellites

Satellite Brightness Start Highest point End
(mag) Time Altitude Azimuth Time Altitude Azimuth Time Altitude Azimuth
SKYMED 2 3.6 19:05:39 10° NNE 19:10:01 82° E 19:14:21 10° S
Cosmos 1408 Rocket 4.1 19:06:36 10° N 19:10:37 36° ENE 19:14:36 10° SE
CZ-4C R/B 3.9 19:07:02 10° WSW 19:11:55 34° NW 19:17:24 10° NNE
CENTAUR R/B 3.6 19:12:20 10° SSE 19:16:44 21° ESE 19:21:26 10° ENE
ATLAS 5 CENTAUR R/B 1.8 19:13:11 10° SSW 19:17:55 78° ESE 19:23:03 10° NE
Cosmos 724 4.5 19:12:43 10° S 19:18:27 54° ESE 19:24:20 10° NE
Cosmos 1484 Rocket 2.9 19:15:11 10° S 19:19:01 84° WSW 19:22:56 10° NNW
Cosmos 192 4.3 19:15:20 10° SSW 19:20:18 84° ESE 19:25:17 10° NNE
Cosmos 1758 3.8 19:18:44 10° SSE 19:22:32 39° E 19:26:23 10° NNE
Cosmos 2237 Rocket 4.2 19:17:42 10° WSW 19:22:42 31° WNW 19:27:42 10° N
ISS -2.4 19:21:47 10° SSW 19:24:41 30° SE 19:27:25 11° ENE
ALOS 3.6 19:21:43 10° ESE 19:25:06 20° ENE 19:28:29 10° NNE
Helios 1A 3.8 19:23:37 10° SE 19:27:17 30° ENE 19:30:58 10° N
NOSS 3-2 (C) 3.6 19:21:26 10° SW 19:27:29 84° WNW 19:34:08 10° NNE
Cosmos 1544 3.9 19:27:32 10° SSE 19:30:50 30° E 19:34:10 10° NNE
Spot 2 Rocket 3.9 19:26:19 10° SE 19:31:02 43° ENE 19:35:47 10° N
SL-19 R/B 4.4 19:26:27 10° SSE 19:32:04 87° WSW 19:38:06 10° NNW
Cosmos 1269 Rocket 4.3 19:32:00 10° S 19:36:58 44° ESE 19:41:58 10° NNE
SAR-Lupe-4 3.7 19:33:30 10° S 19:37:03 80° WSW 19:40:39 10° NNW
Resurs 1-3 4.2 19:33:38 10° SE 19:37:37 34° ENE 19:41:36 10° N
SL-8 R/B 3.7 19:33:13 10° SW 19:37:56 64° SE 19:42:21 12° ENE
Cosmos 1766 4.2 19:36:05 10° SSW 19:39:56 52° W 19:43:52 10° N
METEOR-M 4.2 19:35:11 10° SSE 19:40:26 61° ENE 19:45:42 10° N
Cosmos 1743 Rocket 4.1 19:36:33 10° N 19:40:41 37° ENE 19:44:45 10° SE
Cosmos 1378 4.2 19:39:19 10° NNW 19:42:57 48° W 19:46:32 10° SSW
HJ-1C 3.6 19:39:46 10° SSE 19:43:00 47° ENE 19:46:16 10° N
Resurs 01 Rocket 1.8 19:39:03 10° SSE 19:43:21 52° ENE 19:47:41 10° N
SL-16 R/B 3.4 19:38:48 10° SW 19:44:14 45° WNW 19:49:43 10° NNE
Meteor 1-21 Rocket 4.2 19:38:46 10° N 19:44:15 59° ENE 19:49:41 10° SSE
CZ-2D R/B 4.4 19:50:59 22° E 19:52:05 25° ENE 19:55:18 10° NNE
FREGAT/IRIS 3.1 19:52:25 10° S 19:55:29 64° W 19:58:34 10° NNW
FENGYUN 3A 4.0 19:51:43 10° SE 19:56:45 43° ENE 20:01:49 10° N
Abrixas 2.5 19:54:18 10° WSW 19:57:17 74° NNW 19:58:48 26° NE
Meteor 1-28 Rocket 3.9 19:54:11 10° N 19:57:50 55° WNW 20:01:27 10° SSW
Helios 1B rocket 2.3 19:56:30 10° NNE 20:00:38 76° ESE 20:04:43 10° S
USA 215 3.2 19:55:06 10° NE 20:01:37 66° SE 20:08:05 10° SW
H-2A R/B 3.4 20:03:23 30° E 20:04:10 33° ENE 20:07:41 10° N
Meteor 2-12 Rocket 4.4 19:58:25 10° S 20:04:35 89° W 20:10:46 10° N
CZ-4B DEB 3.2 20:05:05 38° E 20:05:23 39° ENE 20:08:27 10° N
Elektron 1 3.8 20:02:55 10° SSW 20:05:47 52° ESE 20:06:36 38° ENE
Cosmos 1346 2.9 20:03:07 10° N 20:06:06 88° W 20:08:14 17° S
Cosmos 1805 3.9 20:03:10 10° SSW 20:07:01 57° W 20:10:55 10° N
GP-B 3.9 20:04:13 10° NNE 20:08:05 30° E 20:08:05 30° E
Nadezhda 4 Rocket 3.9 20:02:43 10° N 20:09:01 77° E 20:15:12 10° SSE
GPS 2-04 Rocket1 3.2 20:07:32 10° WSW 20:10:44 34° S 20:11:14 33° SSE
SeaSat 1 4.4 20:14:25 13° SSE 20:14:25 13° SSE 20:15:09 10° SSE
Cosmos 1953 3.5 20:11:09 10° SSW 20:14:58 44° W 20:18:48 10° N
ERS-1 Rocket 4.4 20:15:36 20° NE 20:15:36 20° NE 20:18:37 10° NNE
Meteor 1-29 3.0 20:12:19 10° N 20:15:50 80° WNW 20:19:18 10° SSW
Cosmos 1092 Rocket 3.9 20:11:54 10° N 20:18:04 65° E 20:24:10 10° SSE
Gbstr 26 Del rocket 3.2 20:15:40 10° SW 20:20:01 67° SE 20:22:26 31° ENE
Cosmos 1943 Rocket 3.3 20:16:20 10° N 20:20:51 24° NE 20:21:09 24° ENE
Cosmos-2242 4.3 20:20:13 10° SSW 20:24:22 43° WNW 20:28:35 10° N
Cosmos 1655 Rocket 4.5 20:18:45 10° N 20:24:28 37° ENE 20:25:31 34° E
Cosmos 2369 Rocket 2.3 20:19:33 10° NNW 20:25:08 56° ENE 20:27:10 37° ESE
Cosmos 1943 3.1 20:19:53 10° S 20:25:27 65° ESE 20:31:01 10° NNE
Cosmos 1733 3.0 20:25:24 10° S 20:29:15 79° E 20:33:08 10° N
Cosmos 2151 3.5 20:25:21 10° N 20:28:44 41° NE 20:28:44 41° NE
Cosmos 2026 Rocket 4.2 20:24:16 10° N 20:30:07 45° ENE 20:31:31 39° ESE
Cosmos 1470 2.8 20:27:40 10° S 20:31:34 78° W 20:35:27 10° N
Cosmos 1634 Rocket 3.9 20:26:55 10° S 20:33:05 68° E 20:39:16 10° NNE
OAO 3 Rocket 4.0 20:29:54 10° W 20:34:17 37° SSW 20:35:09 34° SSE
Cosmos 2263 4.4 20:29:08 10° NNW 20:34:44 49° ENE 20:35:41 45° E
Cosmos 1674 3.2 20:35:47 10° NNW 20:39:37 59° W 20:41:20 30° SSW
ASTEX 1 3.6 20:39:16 10° N 20:44:09 70° W 20:49:00 10° SSW
Cosmos 1842 Rocket 4.4 20:44:46 10° SSW 20:48:57 49° W 20:53:12 10° N
Cosmos 1500 Rocket 4.3 20:44:57 10° NNW 20:49:17 53° W 20:52:00 21° SSW
Cosmos 2195 Rocket 4.4 20:45:57 10° N 20:52:18 78° E 20:54:42 41° SSE
BREEZE-M DEB (TANK) 3.5 20:45:49 10° WNW 20:56:31 56° N 20:57:17 50° NE
Cosmos 1331 Rocket 4.2 20:53:03 10° NNW 20:57:38 55° NE 20:57:38 55° NE
Cosmos 839 Rocket 4.1 20:51:09 10° NNW 20:58:44 87° ENE 21:00:25 54° SSE
ISS -1.0 20:58:12 10° W 21:00:07 25° WNW 21:00:07 25° WNW
ALOS 3.4 20:59:05 17° SSW 21:02:14 40° W 21:06:40 10° NNW
ATLAS 5 CENTAUR R/B 4.4 20:59:53 10° W 21:03:17 18° NW 21:06:53 10° N
Meteor 1-16 Rocket 4.0 21:04:28 57° SSW 21:05:35 84° W 21:10:56 10° N
CENTAUR R/B 2.9 21:00:36 10° SW 21:06:36 64° NW 21:13:25 10° NNE
SL-24 R/B - RUBIN 2 4.4 21:08:06 10° NNW 21:14:42 75° NE 21:14:42 75° NE
Meteor 1-11 4.2 21:08:59 10° N 21:14:48 82° W 21:14:58 81° SW
Envisat 4.1 21:22:48 36° N 21:22:48 36° N 21:25:47 10° N
USA 215 4.3 21:40:32 21° NNE 21:44:23 41° NNW 21:50:24 10° W
Cosmos 1943 Rocket 3.7 21:59:28 10° NNW 22:02:42 32° NW 22:02:42 32° NW
Cosmos 2369 Rocket 4.3 22:04:45 10° NW 22:08:39 19° W 22:09:00 19° WSW
